Time,TemperatureF,DewpointF,PressureIn,WindDirection,WindDirectionDegrees,WindSpeedMPH,WindSpeedGustMPH,Humidity,HourlyPrecipIn,Conditions,Clouds,dailyrainin,SoftwareType,DateUTC
2013-09-30 00:00:00,63.3,50.5,29.93,NNW,344,0.0,0.0,63,0.00,,,0.00,meteohub,2013-09-30 05:00:00,
2013-09-30 00:05:00,63.3,51.4,29.93,NNW,344,0.0,0.0,65,0.00,,,0.00,meteohub,2013-09-30 05:05:00,
2013-09-30 00:10:00,63.1,51.6,29.93,NNW,344,0.0,0.0,66,0.00,,,0.00,meteohub,2013-09-30 05:10:00,
2013-09-30 00:15:00,63.0,52.2,29.93,NNW,344,0.0,0.0,68,0.00,,,0.00,meteohub,2013-09-30 05:15:00,
2013-09-30 00:20:00,62.8,52.5,29.93,NNW,344,0.0,0.0,69,0.00,,,0.00,meteohub,2013-09-30 05:20:00,
2013-09-30 00:25:00,62.4,51.3,29.93,NNW,344,0.0,0.0,67,0.00,,,0.00,meteohub,2013-09-30 05:25:00,
2013-09-30 00:31:00,62.4,51.8,29.93,NNW,344,0.0,0.0,68,0.00,,,0.00,meteohub,2013-09-30 05:31:00,
2013-09-30 00:36:00,62.2,52.0,29.92,NNW,344,0.0,0.0,69,0.00,,,0.00,meteohub,2013-09-30 05:36:00,
2013-09-30 00:41:00,62.2,51.6,29.92,NNW,344,0.0,0.0,68,0.00,,,0.00,meteohub,2013-09-30 05:41:00,
2013-09-30 00:46:00,62.1,51.8,29.92,NNW,344,0.0,0.0,69,0.00,,,0.00,meteohub,2013-09-30 05:46:00,
2013-09-30 00:51:00,61.9,52.0,29.91,NNW,344,0.0,0.0,70,0.00,,,0.00,meteohub,2013-09-30 05:51:00,
2013-09-30 00:56:00,61.5,51.6,29.92,NNW,344,0.0,0.0,70,0.00,,,0.00,meteohub,2013-09-30 05:56:00,
2013-09-30 01:01:00,61.2,51.6,29.92,NNW,344,0.0,0.0,71,0.00,,,0.00,meteohub,2013-09-30 06:01:00,
2013-09-30 01:06:00,61.0,52.0,29.92,NNW,344,0.0,0.0,72,0.00,,,0.00,meteohub,2013-09-30 06:06:00,
2013-09-30 01:11:00,60.6,52.3,29.92,NNW,344,0.0,0.0,74,0.00,,,0.00,meteohub,2013-09-30 06:11:00,
2013-09-30 01:17:00,60.4,52.2,29.91,NNW,344,0.0,0.0,74,0.00,,,0.00,meteohub,2013-09-30 06:17:00,
2013-09-30 01:22:00,60.3,52.7,29.92,NNW,344,0.0,0.0,76,0.00,,,0.00,meteohub,2013-09-30 06:22:00,
2013-09-30 01:27:00,59.9,52.7,29.92,NNW,344,0.0,0.0,77,0.00,,,0.00,meteohub,2013-09-30 06:27:00,
2013-09-30 01:32:00,59.7,53.6,29.91,NNW,344,0.0,0.0,80,0.00,,,0.00,meteohub,2013-09-30 06:32:00,
2013-09-30 01:37:00,59.5,54.0,29.91,NNW,344,0.0,0.0,82,0.00,,,0.00,meteohub,2013-09-30 06:37:00,
2013-09-30 01:42:00,59.4,54.1,29.91,NNW,344,0.0,0.0,83,0.00,,,0.00,meteohub,2013-09-30 06:42:00,
2013-09-30 01:47:00,59.2,54.0,29.91,NNW,344,0.0,0.0,83,0.00,,,0.00,meteohub,2013-09-30 06:47:00,
2013-09-30 01:52:00,59.0,54.1,29.91,NNW,344,0.0,0.0,84,0.00,,,0.00,meteohub,2013-09-30 06:52:00,
2013-09-30 01:57:00,58.8,53.6,29.91,NNW,344,0.0,0.0,83,0.00,,,0.00,meteohub,2013-09-30 06:57:00,
2013-09-30 02:02:00,58.6,53.8,29.91,NNW,344,0.0,0.0,84,0.00,,,0.00,meteohub,2013-09-30 07:02:00,
2013-09-30 02:07:00,58.5,54.0,29.91,NNW,344,0.0,0.0,85,0.00,,,0.00,meteohub,2013-09-30 07:07:00,
2013-09-30 02:12:00,58.5,54.3,29.91,NNW,344,0.0,0.0,86,0.00,,,0.00,meteohub,2013-09-30 07:12:00,
2013-09-30 02:17:00,58.5,54.3,29.91,NNW,344,0.0,0.0,86,0.00,,,0.00,meteohub,2013-09-30 07:17:00,
2013-09-30 02:22:00,58.5,54.0,29.91,NNW,344,0.0,0.0,85,0.00,,,0.00,meteohub,2013-09-30 07:22:00,
2013-09-30 02:28:00,58.3,53.8,29.90,NNW,344,0.0,0.0,85,0.00,,,0.00,meteohub,2013-09-30 07:28:00,
2013-09-30 02:33:00,58.3,53.8,29.90,NNW,344,0.0,0.0,85,0.00,,,0.00,meteohub,2013-09-30 07:33:00,
2013-09-30 02:38:00,58.3,53.8,29.90,NNW,344,0.0,0.0,85,0.00,,,0.00,meteohub,2013-09-30 07:38:00,
2013-09-30 02:43:00,57.9,53.4,29.90,NNW,344,0.0,0.0,85,0.00,,,0.00,meteohub,2013-09-30 07:43:00,
2013-09-30 02:48:00,57.9,53.4,29.90,NNW,344,0.0,0.0,85,0.00,,,0.00,meteohub,2013-09-30 07:48:00,
2013-09-30 02:53:00,57.7,53.6,29.89,NNW,344,0.0,0.0,86,0.00,,,0.00,meteohub,2013-09-30 07:53:00,
2013-09-30 02:58:00,57.6,53.4,29.89,NNW,344,0.0,0.0,86,0.00,,,0.00,meteohub,2013-09-30 07:58:00,
2013-09-30 03:03:00,57.4,53.6,29.88,NNW,344,0.0,0.0,87,0.00,,,0.00,meteohub,2013-09-30 08:03:00,
2013-09-30 03:08:00,57.2,53.4,29.89,NNW,344,0.0,0.0,87,0.00,,,0.00,meteohub,2013-09-30 08:08:00,
2013-09-30 03:13:00,57.0,53.4,29.88,NNW,344,0.0,0.0,88,0.00,,,0.00,meteohub,2013-09-30 08:13:00,
2013-09-30 03:19:00,57.0,53.8,29.88,NNW,344,0.0,0.0,89,0.00,,,0.00,meteohub,2013-09-30 08:19:00,
2013-09-30 03:24:00,56.8,53.6,29.89,NNW,344,0.0,0.0,89,0.00,,,0.00,meteohub,2013-09-30 08:24:00,
2013-09-30 03:29:00,56.8,53.6,29.88,NNW,344,0.0,0.0,89,0.00,,,0.00,meteohub,2013-09-30 08:29:00,
2013-09-30 03:34:00,56.7,53.4,29.88,NNW,344,0.0,0.0,89,0.00,,,0.00,meteohub,2013-09-30 08:34:00,
2013-09-30 03:39:00,56.7,53.4,29.88,NNW,344,0.0,0.0,89,0.00,,,0.00,meteohub,2013-09-30 08:39:00,
2013-09-30 03:44:00,56.7,53.8,29.88,NNW,344,0.0,0.0,90,0.00,,,0.00,meteohub,2013-09-30 08:44:00,
2013-09-30 03:49:00,56.7,53.8,29.88,NNW,344,0.0,0.0,90,0.00,,,0.00,meteohub,2013-09-30 08:49:00,
2013-09-30 03:54:00,56.7,53.4,29.87,NNW,344,0.0,0.0,89,0.00,,,0.00,meteohub,2013-09-30 08:54:00,
2013-09-30 03:59:00,56.3,53.1,29.88,NNW,344,0.0,0.0,89,0.00,,,0.00,meteohub,2013-09-30 08:59:00,
2013-09-30 04:04:00,56.1,52.9,29.88,NNW,344,0.0,0.0,89,0.00,,,0.00,meteohub,2013-09-30 09:04:00,
2013-09-30 04:09:00,55.9,52.7,29.87,NNW,344,0.0,0.0,89,0.00,,,0.00,meteohub,2013-09-30 09:09:00,
2013-09-30 04:14:00,55.8,52.9,29.87,NNW,344,0.0,0.0,90,0.00,,,0.00,meteohub,2013-09-30 09:14:00,
2013-09-30 04:19:00,55.6,52.7,29.87,NNW,344,0.0,0.0,90,0.00,,,0.00,meteohub,2013-09-30 09:19:00,
2013-09-30 04:24:00,55.4,52.5,29.87,NNW,344,0.0,0.0,90,0.00,,,0.00,meteohub,2013-09-30 09:24:00,
2013-09-30 04:29:00,55.2,52.3,29.87,NNW,344,0.0,0.0,90,0.00,,,0.00,meteohub,2013-09-30 09:29:00,
2013-09-30 04:34:00,55.0,52.2,29.87,NNW,344,0.0,0.0,90,0.00,,,0.00,meteohub,2013-09-30 09:34:00,
2013-09-30 04:39:00,55.0,52.2,29.87,NNW,344,0.0,0.0,90,0.00,,,0.00,meteohub,2013-09-30 09:39:00,
2013-09-30 04:44:00,54.9,52.0,29.87,NNW,344,0.0,0.0,90,0.00,,,0.00,meteohub,2013-09-30 09:44:00,
2013-09-30 04:49:00,54.9,52.0,29.87,NNW,344,0.0,0.0,90,0.00,,,0.00,meteohub,2013-09-30 09:49:00,
2013-09-30 04:54:00,54.7,51.8,29.87,NNW,344,0.0,0.0,90,0.00,,,0.00,meteohub,2013-09-30 09:54:00,
2013-09-30 04:59:00,54.7,51.8,29.87,NNW,344,0.0,0.0,90,0.00,,,0.00,meteohub,2013-09-30 09:59:00,
2013-09-30 05:04:00,54.5,52.0,29.87,NNW,344,0.0,0.0,91,0.00,,,0.00,meteohub,2013-09-30 10:04:00,
2013-09-30 05:09:00,54.5,52.0,29.87,NNW,344,0.0,0.0,91,0.00,,,0.00,meteohub,2013-09-30 10:09:00,
2013-09-30 05:14:00,54.5,52.0,29.87,NNW,344,0.0,0.0,91,0.00,,,0.00,meteohub,2013-09-30 10:14:00,
2013-09-30 05:19:00,54.7,51.8,29.87,NNW,344,0.0,0.0,90,0.00,,,0.00,meteohub,2013-09-30 10:19:00,
2013-09-30 05:24:00,54.7,51.8,29.87,NNW,344,0.0,0.0,90,0.00,,,0.00,meteohub,2013-09-30 10:24:00,
2013-09-30 05:29:00,54.9,52.0,29.87,NNW,344,0.0,0.0,90,0.00,,,0.00,meteohub,2013-09-30 10:29:00,
2013-09-30 05:34:00,55.0,51.8,29.87,NNW,344,0.0,0.0,89,0.00,,,0.00,meteohub,2013-09-30 10:34:00,
2013-09-30 05:39:00,55.0,51.8,29.87,NNW,344,0.0,0.0,89,0.00,,,0.00,meteohub,2013-09-30 10:39:00,
2013-09-30 05:45:00,55.0,51.6,29.87,NNW,344,0.0,0.0,88,0.00,,,0.00,meteohub,2013-09-30 10:45:00,
2013-09-30 05:50:00,55.0,51.6,29.88,NNW,344,0.0,0.0,88,0.00,,,0.00,meteohub,2013-09-30 10:50:00,
2013-09-30 05:55:00,55.0,51.6,29.88,NNW,344,0.0,0.0,88,0.00,,,0.00,meteohub,2013-09-30 10:55:00,
2013-09-30 06:00:00,54.9,51.6,29.88,NNW,344,0.0,0.0,89,0.00,,,0.00,meteohub,2013-09-30 11:00:00,
2013-09-30 06:05:00,54.9,51.6,29.88,NNW,344,0.0,0.0,89,0.00,,,0.00,meteohub,2013-09-30 11:05:00,
2013-09-30 06:10:00,54.7,51.4,29.88,NNW,344,0.0,0.0,89,0.00,,,0.00,meteohub,2013-09-30 11:10:00,
2013-09-30 06:15:00,54.7,51.4,29.88,NNW,344,0.0,0.0,89,0.00,,,0.00,meteohub,2013-09-30 11:15:00,
2013-09-30 06:20:00,54.5,51.3,29.88,NNW,344,0.0,0.0,89,0.00,,,0.00,meteohub,2013-09-30 11:20:00,
2013-09-30 06:25:00,54.3,51.1,29.88,NNW,344,0.0,0.0,89,0.00,,,0.00,meteohub,2013-09-30 11:25:00,
2013-09-30 06:30:00,54.3,51.4,29.88,NNW,344,0.0,0.0,90,0.00,,,0.00,meteohub,2013-09-30 11:30:00,
2013-09-30 06:35:00,54.3,51.4,29.88,NNW,344,0.0,0.0,90,0.00,,,0.00,meteohub,2013-09-30 11:35:00,
2013-09-30 06:40:00,54.1,51.3,29.88,NNW,344,0.0,0.0,90,0.00,,,0.00,meteohub,2013-09-30 11:40:00,
2013-09-30 06:45:00,54.1,51.3,29.88,NNW,344,0.0,0.0,90,0.00,,,0.00,meteohub,2013-09-30 11:45:00,
2013-09-30 06:50:00,54.1,51.3,29.88,NNW,344,0.0,0.0,90,0.00,,,0.00,meteohub,2013-09-30 11:50:00,
2013-09-30 06:56:00,54.0,51.1,29.88,NNW,344,0.0,0.0,90,0.00,,,0.00,meteohub,2013-09-30 11:56:00,
2013-09-30 07:01:00,54.1,51.6,29.88,NNW,344,0.0,0.0,91,0.00,,,0.00,meteohub,2013-09-30 12:01:00,
2013-09-30 07:06:00,54.1,51.6,29.88,NNW,344,0.0,0.0,91,0.00,,,0.00,meteohub,2013-09-30 12:06:00,
2013-09-30 07:11:00,54.1,51.6,29.88,NNW,344,0.0,0.0,91,0.00,,,0.00,meteohub,2013-09-30 12:11:00,
2013-09-30 07:16:00,54.1,51.6,29.88,NNW,344,0.0,0.0,91,0.00,,,0.00,meteohub,2013-09-30 12:16:00,
2013-09-30 07:21:00,54.1,51.6,29.88,NNW,344,0.0,0.0,91,0.00,,,0.00,meteohub,2013-09-30 12:21:00,
2013-09-30 07:26:00,54.1,51.6,29.88,NNW,344,0.0,0.0,91,0.00,,,0.00,meteohub,2013-09-30 12:26:00,
2013-09-30 07:31:00,54.1,51.6,29.88,NNW,344,0.0,0.0,91,0.00,,,0.00,meteohub,2013-09-30 12:31:00,
2013-09-30 07:36:00,54.1,51.6,29.88,NNW,344,0.0,0.0,91,0.00,,,0.00,meteohub,2013-09-30 12:36:00,
2013-09-30 07:41:00,54.1,51.8,29.88,NNW,344,0.0,0.0,92,0.00,,,0.00,meteohub,2013-09-30 12:41:00,
2013-09-30 07:46:00,54.0,51.4,29.88,NNW,344,0.0,0.0,91,0.00,,,0.00,meteohub,2013-09-30 12:46:00,
2013-09-30 07:51:00,54.0,51.4,29.88,NNW,344,0.0,0.0,91,0.00,,,0.00,meteohub,2013-09-30 12:51:00,
2013-09-30 07:56:00,54.0,51.6,29.88,NNW,344,0.0,0.0,92,0.00,,,0.00,meteohub,2013-09-30 12:56:00,
2013-09-30 08:01:00,54.1,51.8,29.88,NNW,336,0.0,0.0,92,0.00,,,0.00,meteohub,2013-09-30 13:01:00,
2013-09-30 08:06:00,54.7,52.7,29.88,WNW,295,0.0,0.0,93,0.00,,,0.00,meteohub,2013-09-30 13:06:00,
2013-09-30 08:11:00,55.6,54.0,29.88,WNW,295,0.0,0.0,94,0.00,,,0.00,meteohub,2013-09-30 13:11:00,
2013-09-30 08:16:00,56.1,54.1,29.88,WNW,295,0.0,0.0,93,0.00,,,0.00,meteohub,2013-09-30 13:16:00,
2013-09-30 08:21:00,56.7,54.7,29.88,SW,225,0.0,0.0,93,0.00,,,0.00,meteohub,2013-09-30 13:21:00,
2013-09-30 08:26:00,57.4,55.6,29.88,SW,223,4.0,6.0,94,0.00,,,0.00,meteohub,2013-09-30 13:26:00,
2013-09-30 08:31:00,57.9,56.1,29.88,SW,226,0.0,6.0,94,0.00,,,0.00,meteohub,2013-09-30 13:31:00,
2013-09-30 08:36:00,58.5,56.7,29.87,SW,226,0.0,6.0,94,0.00,,,0.00,meteohub,2013-09-30 13:36:00,
2013-09-30 08:41:00,58.8,57.4,29.88,SW,225,0.0,6.0,95,0.00,,,0.00,meteohub,2013-09-30 13:41:00,
2013-09-30 08:46:00,59.4,57.9,29.88,SW,225,0.0,6.0,95,0.00,,,0.00,meteohub,2013-09-30 13:46:00,
2013-09-30 08:51:00,59.5,58.1,29.88,SW,225,0.0,6.0,95,0.00,,,0.00,meteohub,2013-09-30 13:51:00,
2013-09-30 08:57:00,59.7,58.3,29.88,SW,225,0.0,4.0,95,0.00,,,0.00,meteohub,2013-09-30 13:57:00,
2013-09-30 09:02:00,60.1,58.6,29.88,SW,225,0.0,4.0,95,0.00,,,0.00,meteohub,2013-09-30 14:02:00,
2013-09-30 09:07:00,60.3,58.8,29.88,SW,225,0.0,4.0,95,0.00,,,0.00,meteohub,2013-09-30 14:07:00,
2013-09-30 09:12:00,60.8,59.4,29.88,SW,225,0.0,4.0,95,0.00,,,0.00,meteohub,2013-09-30 14:12:00,
2013-09-30 09:17:00,61.3,60.3,29.88,SW,221,0.0,4.0,96,0.00,,,0.00,meteohub,2013-09-30 14:17:00,
2013-09-30 09:22:00,61.7,60.6,29.88,SW,234,3.0,4.0,96,0.00,,,0.00,meteohub,2013-09-30 14:22:00,
2013-09-30 09:27:00,62.1,60.6,29.88,SW,227,5.0,5.0,95,0.00,,,0.00,meteohub,2013-09-30 14:27:00,
2013-09-30 09:32:00,62.4,61.3,29.88,SW,221,5.0,5.0,96,0.00,,,0.00,meteohub,2013-09-30 14:32:00,
2013-09-30 09:37:00,62.8,61.7,29.88,SW,232,4.0,4.0,96,0.00,,,0.00,meteohub,2013-09-30 14:37:00,
2013-09-30 09:42:00,63.1,62.1,29.88,SW,231,8.0,11.0,96,0.00,,,0.00,meteohub,2013-09-30 14:42:00,
2013-09-30 09:47:00,63.3,61.9,29.88,WSW,242,1.0,11.0,95,0.00,,,0.00,meteohub,2013-09-30 14:47:00,
2013-09-30 09:52:00,63.7,62.6,29.88,SW,229,6.0,11.0,96,0.00,,,0.00,meteohub,2013-09-30 14:52:00,
2013-09-30 09:57:00,63.9,62.8,29.88,West,271,8.0,11.0,96,0.00,,,0.00,meteohub,2013-09-30 14:57:00,
2013-09-30 10:02:00,63.9,62.4,29.88,SW,229,8.0,12.0,95,0.00,,,0.00,meteohub,2013-09-30 15:02:00,
2013-09-30 10:07:00,64.0,62.6,29.88,WSW,240,4.0,12.0,95,0.00,,,0.00,meteohub,2013-09-30 15:07:00,
2013-09-30 10:12:00,64.0,62.6,29.88,SW,232,4.0,12.0,95,0.00,,,0.00,meteohub,2013-09-30 15:12:00,
2013-09-30 10:17:00,64.4,63.0,29.89,SW,217,6.0,12.0,95,0.00,,,0.00,meteohub,2013-09-30 15:17:00,
2013-09-30 10:22:00,64.6,62.8,29.88,WSW,242,0.0,12.0,94,0.00,,,0.00,meteohub,2013-09-30 15:22:00,
2013-09-30 10:27:00,64.8,62.6,29.88,WSW,246,3.0,11.0,93,0.00,,,0.00,meteohub,2013-09-30 15:27:00,
2013-09-30 10:32:00,65.1,62.8,29.88,SW,228,4.0,11.0,92,0.00,,,0.00,meteohub,2013-09-30 15:32:00,
2013-09-30 10:37:00,65.8,63.1,29.88,WSW,248,7.0,11.0,91,0.00,,,0.00,meteohub,2013-09-30 15:37:00,
2013-09-30 10:42:00,66.7,63.3,29.88,West,273,6.0,11.0,89,0.00,,,0.00,meteohub,2013-09-30 15:42:00,
2013-09-30 10:47:00,67.3,63.3,29.88,WSW,257,3.0,11.0,87,0.00,,,0.00,meteohub,2013-09-30 15:47:00,
2013-09-30 10:52:00,67.6,63.3,29.88,West,261,5.0,11.0,86,0.00,,,0.00,meteohub,2013-09-30 15:52:00,
2013-09-30 10:57:00,68.0,63.7,29.87,SW,232,0.0,11.0,86,0.00,,,0.00,meteohub,2013-09-30 15:57:00,
2013-09-30 11:02:00,68.7,64.0,29.88,SW,228,10.0,11.0,85,0.00,,,0.00,meteohub,2013-09-30 16:02:00,
2013-09-30 11:07:00,69.4,64.4,29.87,WSW,252,5.0,11.0,84,0.00,,,0.00,meteohub,2013-09-30 16:07:00,
2013-09-30 11:13:00,70.3,64.2,29.87,SW,234,6.0,11.0,81,0.00,,,0.00,meteohub,2013-09-30 16:13:00,
2013-09-30 11:17:00,70.9,64.4,29.87,SW,236,2.0,11.0,80,0.00,,,0.00,meteohub,2013-09-30 16:17:00,
2013-09-30 11:23:00,71.6,64.4,29.87,SSW,202,1.0,11.0,78,0.00,,,0.00,meteohub,2013-09-30 16:23:00,
2013-09-30 11:28:00,72.3,64.8,29.87,WSW,244,3.0,11.0,77,0.00,,,0.00,meteohub,2013-09-30 16:28:00,
2013-09-30 11:33:00,73.2,64.8,29.87,WSW,238,3.0,11.0,75,0.00,,,0.00,meteohub,2013-09-30 16:33:00,
2013-09-30 11:38:00,73.9,64.4,29.86,West,261,3.0,11.0,72,0.00,,,0.00,meteohub,2013-09-30 16:38:00,
2013-09-30 11:43:00,74.1,64.0,29.86,SW,235,4.0,10.0,71,0.00,,,0.00,meteohub,2013-09-30 16:43:00,
2013-09-30 11:48:00,74.5,64.9,29.86,WSW,239,4.0,10.0,72,0.00,,,0.00,meteohub,2013-09-30 16:48:00,
2013-09-30 11:53:00,75.0,65.3,29.86,SW,231,6.0,10.0,72,0.00,,,0.00,meteohub,2013-09-30 16:53:00,
2013-09-30 11:58:00,75.6,65.1,29.86,SW,236,2.0,10.0,70,0.00,,,0.00,meteohub,2013-09-30 16:58:00,
2013-09-30 12:03:00,76.3,65.3,29.85,SSW,199,0.0,11.0,69,0.00,,,0.00,meteohub,2013-09-30 17:03:00,
2013-09-30 12:08:00,76.6,64.9,29.85,SSW,206,4.0,11.0,67,0.00,,,0.00,meteohub,2013-09-30 17:08:00,
2013-09-30 12:13:00,77.4,65.1,29.85,SW,215,0.0,11.0,66,0.00,,,0.00,meteohub,2013-09-30 17:13:00,
2013-09-30 12:18:00,78.3,65.1,29.85,WSW,239,5.0,11.0,64,0.00,,,0.00,meteohub,2013-09-30 17:18:00,
2013-09-30 12:23:00,78.4,64.8,29.85,SW,231,7.0,11.0,63,0.00,,,0.00,meteohub,2013-09-30 17:23:00,
2013-09-30 12:28:00,78.4,64.8,29.84,South,185,3.0,11.0,63,0.00,,,0.00,meteohub,2013-09-30 17:28:00,
2013-09-30 12:33:00,78.4,64.8,29.84,WSW,241,0.0,9.0,63,0.00,,,0.00,meteohub,2013-09-30 17:33:00,
2013-09-30 12:38:00,78.6,64.6,29.84,WSW,249,0.0,9.0,62,0.00,,,0.00,meteohub,2013-09-30 17:38:00,
2013-09-30 12:43:00,79.3,64.8,29.84,WSW,242,0.0,9.0,61,0.00,,,0.00,meteohub,2013-09-30 17:43:00,
2013-09-30 12:48:00,80.2,65.1,29.84,WSW,240,2.0,9.0,60,0.00,,,0.00,meteohub,2013-09-30 17:48:00,
2013-09-30 12:53:00,80.6,64.9,29.83,WSW,238,6.0,9.0,59,0.00,,,0.00,meteohub,2013-09-30 17:53:00,
2013-09-30 12:58:00,80.4,64.2,29.83,SW,234,2.0,7.0,58,0.00,,,0.00,meteohub,2013-09-30 17:58:00,
2013-09-30 13:03:00,81.0,64.2,29.83,WSW,244,1.0,7.0,57,0.00,,,0.00,meteohub,2013-09-30 18:03:00,
2013-09-30 13:08:00,81.5,64.2,29.83,SW,236,2.0,7.0,56,0.00,,,0.00,meteohub,2013-09-30 18:08:00,
2013-09-30 13:13:00,82.0,63.7,29.83,SW,231,6.0,7.0,54,0.00,,,0.00,meteohub,2013-09-30 18:13:00,
2013-09-30 13:18:00,82.2,63.3,29.82,SW,215,8.0,8.0,53,0.00,,,0.00,meteohub,2013-09-30 18:18:00,
2013-09-30 13:23:00,82.0,63.7,29.82,SW,225,0.0,10.0,54,0.00,,,0.00,meteohub,2013-09-30 18:23:00,
2013-09-30 13:28:00,82.0,63.1,29.82,SW,227,3.0,10.0,53,0.00,,,0.00,meteohub,2013-09-30 18:28:00,
2013-09-30 13:34:00,82.6,63.1,29.81,SW,232,5.0,10.0,52,0.00,,,0.00,meteohub,2013-09-30 18:34:00,
2013-09-30 13:39:00,82.9,63.5,29.81,SE,140,4.0,10.0,52,0.00,,,0.00,meteohub,2013-09-30 18:39:00,
2013-09-30 13:44:00,83.3,63.3,29.81,South,189,3.0,7.0,51,0.00,,,0.00,meteohub,2013-09-30 18:44:00,
2013-09-30 13:49:00,83.8,63.1,29.80,South,187,3.0,7.0,50,0.00,,,0.00,meteohub,2013-09-30 18:49:00,
2013-09-30 13:54:00,84.0,64.6,29.80,SSW,208,0.0,7.0,52,0.00,,,0.00,meteohub,2013-09-30 18:54:00,
2013-09-30 13:59:00,84.2,63.5,29.79,SW,221,4.0,7.0,50,0.00,,,0.00,meteohub,2013-09-30 18:59:00,
2013-09-30 14:04:00,84.2,61.7,29.79,SW,223,0.0,7.0,47,0.00,,,0.00,meteohub,2013-09-30 19:04:00,
2013-09-30 14:09:00,84.4,62.6,29.79,SW,222,0.0,7.0,48,0.00,,,0.00,meteohub,2013-09-30 19:09:00,
2013-09-30 14:14:00,84.7,63.0,29.79,SSW,192,5.0,10.0,48,0.00,,,0.00,meteohub,2013-09-30 19:14:00,
2013-09-30 14:19:00,85.1,62.1,29.79,SW,219,0.0,10.0,46,0.00,,,0.00,meteohub,2013-09-30 19:19:00,
2013-09-30 14:24:00,85.5,61.7,29.78,SW,229,8.0,10.0,45,0.00,,,0.00,meteohub,2013-09-30 19:24:00,
2013-09-30 14:29:00,85.8,61.3,29.78,WSW,238,0.0,10.0,44,0.00,,,0.00,meteohub,2013-09-30 19:29:00,
2013-09-30 14:34:00,86.4,61.2,29.78,SSW,196,0.0,8.0,43,0.00,,,0.00,meteohub,2013-09-30 19:34:00,
2013-09-30 14:39:00,86.5,60.8,29.78,SW,214,0.0,8.0,42,0.00,,,0.00,meteohub,2013-09-30 19:39:00,
2013-09-30 14:44:00,86.7,59.5,29.78,SSW,200,0.0,8.0,40,0.00,,,0.00,meteohub,2013-09-30 19:44:00,
2013-09-30 14:49:00,87.1,58.5,29.78,SSW,212,1.0,8.0,38,0.00,,,0.00,meteohub,2013-09-30 19:49:00,
2013-09-30 14:54:00,87.4,58.6,29.77,SW,236,3.0,8.0,38,0.00,,,0.00,meteohub,2013-09-30 19:54:00,
2013-09-30 14:59:00,87.8,59.7,29.77,SSW,204,0.0,5.0,39,0.00,,,0.00,meteohub,2013-09-30 19:59:00,
2013-09-30 15:04:00,88.0,59.2,29.77,SW,234,5.0,5.0,38,0.00,,,0.00,meteohub,2013-09-30 20:04:00,
2013-09-30 15:09:00,88.0,59.9,29.76,SW,226,2.0,5.0,39,0.00,,,0.00,meteohub,2013-09-30 20:09:00,
2013-09-30 15:14:00,88.2,60.1,29.76,SW,234,0.0,5.0,39,0.00,,,0.00,meteohub,2013-09-30 20:14:00,
2013-09-30 15:19:00,88.5,58.1,29.76,SSW,206,1.0,10.0,36,0.00,,,0.00,meteohub,2013-09-30 20:19:00,
2013-09-30 15:24:00,88.3,55.6,29.76,SW,229,2.0,10.0,33,0.00,,,0.00,meteohub,2013-09-30 20:24:00,
2013-09-30 15:29:00,88.3,55.6,29.76,SSE,147,0.0,10.0,33,0.00,,,0.00,meteohub,2013-09-30 20:29:00,
2013-09-30 15:34:00,88.5,55.8,29.76,SE,144,6.0,6.0,33,0.00,,,0.00,meteohub,2013-09-30 20:34:00,
2013-09-30 15:39:00,88.3,55.6,29.76,SW,227,4.0,6.0,33,0.00,,,0.00,meteohub,2013-09-30 20:39:00,
2013-09-30 15:44:00,88.5,54.9,29.76,SW,223,3.0,6.0,32,0.00,,,0.00,meteohub,2013-09-30 20:44:00,
2013-09-30 15:49:00,88.5,55.8,29.75,SW,225,6.0,11.0,33,0.00,,,0.00,meteohub,2013-09-30 20:49:00,
2013-09-30 15:54:00,88.7,55.9,29.75,South,171,0.0,11.0,33,0.00,,,0.00,meteohub,2013-09-30 20:54:00,
2013-09-30 15:59:00,88.7,55.9,29.75,SE,146,0.0,10.0,33,0.00,,,0.00,meteohub,2013-09-30 20:59:00,
2013-09-30 16:04:00,89.1,57.0,29.75,SSW,211,0.0,10.0,34,0.00,,,0.00,meteohub,2013-09-30 21:04:00,
2013-09-30 16:09:00,89.4,54.0,29.75,WSW,251,0.0,10.0,30,0.00,,,0.00,meteohub,2013-09-30 21:09:00,
2013-09-30 16:14:00,89.4,55.8,29.75,SW,217,0.0,6.0,32,0.00,,,0.00,meteohub,2013-09-30 21:14:00,
2013-09-30 16:19:00,89.8,55.9,29.75,SW,215,1.0,6.0,32,0.00,,,0.00,meteohub,2013-09-30 21:19:00,
2013-09-30 16:24:00,90.0,56.1,29.75,SW,217,2.0,6.0,32,0.00,,,0.00,meteohub,2013-09-30 21:24:00,
2013-09-30 16:29:00,90.0,55.2,29.75,WSW,258,2.0,5.0,31,0.00,,,0.00,meteohub,2013-09-30 21:29:00,
2013-09-30 16:34:00,89.8,55.0,29.75,WSW,250,1.0,5.0,31,0.00,,,0.00,meteohub,2013-09-30 21:34:00,
2013-09-30 16:39:00,89.8,55.9,29.75,WSW,250,0.0,5.0,32,0.00,,,0.00,meteohub,2013-09-30 21:39:00,
2013-09-30 16:44:00,90.1,56.3,29.75,SW,227,0.0,6.0,32,0.00,,,0.00,meteohub,2013-09-30 21:44:00,
2013-09-30 16:49:00,90.5,55.8,29.75,SW,224,3.0,6.0,31,0.00,,,0.00,meteohub,2013-09-30 21:49:00,
2013-09-30 16:54:00,90.3,54.7,29.75,WSW,240,5.0,6.0,30,0.00,,,0.00,meteohub,2013-09-30 21:54:00,
2013-09-30 17:00:00,90.0,55.2,29.74,WSW,240,0.0,10.0,31,0.00,,,0.00,meteohub,2013-09-30 22:00:00,
2013-09-30 17:05:00,90.1,56.3,29.74,WSW,240,1.0,10.0,32,0.00,,,0.00,meteohub,2013-09-30 22:05:00,
2013-09-30 17:10:00,90.1,57.2,29.74,SSW,212,3.0,10.0,33,0.00,,,0.00,meteohub,2013-09-30 22:10:00,
2013-09-30 17:15:00,90.3,56.5,29.74,SSW,211,1.0,4.0,32,0.00,,,0.00,meteohub,2013-09-30 22:15:00,
2013-09-30 17:20:00,90.1,55.4,29.74,South,184,0.0,4.0,31,0.00,,,0.00,meteohub,2013-09-30 22:20:00,
2013-09-30 17:25:00,90.1,56.3,29.74,WSW,245,1.0,4.0,32,0.00,,,0.00,meteohub,2013-09-30 22:25:00,
2013-09-30 17:30:00,90.1,56.3,29.74,WSW,245,2.0,5.0,32,0.00,,,0.00,meteohub,2013-09-30 22:30:00,
2013-09-30 17:35:00,90.3,56.5,29.74,SSW,204,0.0,5.0,32,0.00,,,0.00,meteohub,2013-09-30 22:35:00,
2013-09-30 17:40:00,90.1,55.4,29.74,SSW,203,0.0,9.0,31,0.00,,,0.00,meteohub,2013-09-30 22:40:00,
2013-09-30 17:45:00,90.1,55.4,29.74,SSW,204,2.0,9.0,31,0.00,,,0.00,meteohub,2013-09-30 22:45:00,
2013-09-30 17:50:00,90.0,55.2,29.74,SSE,159,0.0,9.0,31,0.00,,,0.00,meteohub,2013-09-30 22:50:00,
2013-09-30 17:55:00,89.8,55.0,29.74,SSE,152,5.0,9.0,31,0.00,,,0.00,meteohub,2013-09-30 22:55:00,
2013-09-30 18:00:00,89.2,53.8,29.74,SSW,196,0.0,8.0,30,0.00,,,0.00,meteohub,2013-09-30 23:00:00,
2013-09-30 18:06:00,89.1,53.6,29.74,South,175,0.0,8.0,30,0.00,,,0.00,meteohub,2013-09-30 23:06:00,
2013-09-30 18:11:00,88.9,54.3,29.74,SSE,156,0.0,8.0,31,0.00,,,0.00,meteohub,2013-09-30 23:11:00,
2013-09-30 18:16:00,88.7,54.1,29.74,SSE,156,0.0,8.0,31,0.00,,,0.00,meteohub,2013-09-30 23:16:00,
2013-09-30 18:21:00,88.7,54.1,29.74,SSE,156,0.0,7.0,31,0.00,,,0.00,meteohub,2013-09-30 23:21:00,
2013-09-30 18:26:00,88.7,54.1,29.74,SE,135,5.0,7.0,31,0.00,,,0.00,meteohub,2013-09-30 23:26:00,
2013-09-30 18:31:00,88.5,54.0,29.74,SSE,155,0.0,7.0,31,0.00,,,0.00,meteohub,2013-09-30 23:31:00,
2013-09-30 18:36:00,88.5,54.9,29.74,SSE,156,0.0,7.0,32,0.00,,,0.00,meteohub,2013-09-30 23:36:00,
2013-09-30 18:41:00,88.3,54.7,29.74,SSE,155,0.0,5.0,32,0.00,,,0.00,meteohub,2013-09-30 23:41:00,
2013-09-30 18:46:00,88.0,54.5,29.74,SSE,156,0.0,5.0,32,0.00,,,0.00,meteohub,2013-09-30 23:46:00,
2013-09-30 18:51:00,87.6,55.0,29.74,SSE,156,0.0,5.0,33,0.00,,,0.00,meteohub,2013-09-30 23:51:00,
2013-09-30 18:56:00,87.3,55.4,29.74,SSE,155,0.0,5.0,34,0.00,,,0.00,meteohub,2013-09-30 23:56:00,
2013-09-30 19:01:00,86.9,55.2,29.75,SSE,155,0.0,4.0,34,0.00,,,0.00,meteohub,2013-10-01 00:01:00,
2013-09-30 19:06:00,86.5,55.6,29.74,SSE,155,0.0,4.0,35,0.00,,,0.00,meteohub,2013-10-01 00:06:00,
2013-09-30 19:11:00,86.4,56.3,29.74,SSE,156,0.0,4.0,36,0.00,,,0.00,meteohub,2013-10-01 00:11:00,
2013-09-30 19:16:00,85.8,56.5,29.74,SSE,155,0.0,0.0,37,0.00,,,0.00,meteohub,2013-10-01 00:16:00,
2013-09-30 19:21:00,85.3,56.1,29.74,SSE,156,0.0,0.0,37,0.00,,,0.00,meteohub,2013-10-01 00:21:00,
2013-09-30 19:26:00,84.7,57.0,29.74,SSE,156,0.0,0.0,39,0.00,,,0.00,meteohub,2013-10-01 00:26:00,
2013-09-30 19:31:00,83.8,57.0,29.75,SSE,155,0.0,0.0,40,0.00,,,0.00,meteohub,2013-10-01 00:31:00,
2013-09-30 19:36:00,83.3,57.7,29.75,SSE,156,0.0,0.0,42,0.00,,,0.00,meteohub,2013-10-01 00:36:00,
2013-09-30 19:41:00,82.6,58.5,29.75,SSE,156,0.0,0.0,44,0.00,,,0.00,meteohub,2013-10-01 00:41:00,
2013-09-30 19:47:00,81.9,58.5,29.75,SSE,156,0.0,0.0,45,0.00,,,0.00,meteohub,2013-10-01 00:47:00,
2013-09-30 19:52:00,81.1,58.5,29.75,SSE,156,0.0,0.0,46,0.00,,,0.00,meteohub,2013-10-01 00:52:00,
2013-09-30 19:57:00,80.4,58.3,29.75,SSE,155,0.0,0.0,47,0.00,,,0.00,meteohub,2013-10-01 00:57:00,
2013-09-30 20:02:00,79.9,59.0,29.75,SSE,155,0.0,0.0,49,0.00,,,0.00,meteohub,2013-10-01 01:02:00,
2013-09-30 20:07:00,79.2,59.0,29.75,SSE,155,0.0,0.0,50,0.00,,,0.00,meteohub,2013-10-01 01:07:00,
2013-09-30 20:12:00,78.4,59.4,29.75,SSE,156,0.0,0.0,52,0.00,,,0.00,meteohub,2013-10-01 01:12:00,
2013-09-30 20:17:00,78.1,60.1,29.75,SSE,156,0.0,0.0,54,0.00,,,0.00,meteohub,2013-10-01 01:17:00,
2013-09-30 20:22:00,77.5,59.5,29.76,SSE,156,0.0,0.0,54,0.00,,,0.00,meteohub,2013-10-01 01:22:00,
2013-09-30 20:27:00,77.0,59.5,29.76,SSE,156,0.0,0.0,55,0.00,,,0.00,meteohub,2013-10-01 01:27:00,
2013-09-30 20:32:00,76.5,59.5,29.76,SSE,156,0.0,0.0,56,0.00,,,0.00,meteohub,2013-10-01 01:32:00,
2013-09-30 20:37:00,76.1,59.7,29.76,SSE,156,0.0,0.0,57,0.00,,,0.00,meteohub,2013-10-01 01:37:00,
2013-09-30 20:42:00,75.7,59.4,29.76,SSE,156,0.0,0.0,57,0.00,,,0.00,meteohub,2013-10-01 01:42:00,
2013-09-30 20:47:00,75.6,59.2,29.77,SSE,156,0.0,0.0,57,0.00,,,0.00,meteohub,2013-10-01 01:47:00,
2013-09-30 20:52:00,75.4,58.6,29.77,SSE,156,0.0,0.0,56,0.00,,,0.00,meteohub,2013-10-01 01:52:00,
2013-09-30 20:57:00,75.4,58.6,29.77,SSE,147,6.0,6.0,56,0.00,,,0.00,meteohub,2013-10-01 01:57:00,
2013-09-30 21:02:00,75.6,58.8,29.77,SE,124,2.0,6.0,56,0.00,,,0.00,meteohub,2013-10-01 02:02:00,
2013-09-30 21:07:00,75.6,58.8,29.77,SE,144,1.0,6.0,56,0.00,,,0.00,meteohub,2013-10-01 02:07:00,
2013-09-30 21:12:00,75.6,59.2,29.77,SSE,149,5.0,11.0,57,0.00,,,0.00,meteohub,2013-10-01 02:12:00,
2013-09-30 21:17:00,75.6,59.2,29.77,ESE,121,1.0,11.0,57,0.00,,,0.00,meteohub,2013-10-01 02:17:00,
2013-09-30 21:22:00,75.4,59.0,29.77,SE,128,5.0,11.0,57,0.00,,,0.00,meteohub,2013-10-01 02:22:00,
2013-09-30 21:27:00,75.4,59.0,29.77,SE,139,0.0,11.0,57,0.00,,,0.00,meteohub,2013-10-01 02:27:00,
2013-09-30 21:32:00,75.0,59.2,29.77,ESE,121,4.0,11.0,58,0.00,,,0.00,meteohub,2013-10-01 02:32:00,
2013-09-30 21:37:00,74.8,59.0,29.77,SE,133,7.0,11.0,58,0.00,,,0.00,meteohub,2013-10-01 02:37:00,
2013-09-30 21:42:00,74.7,59.4,29.77,SE,140,7.0,11.0,59,0.00,,,0.00,meteohub,2013-10-01 02:42:00,
2013-09-30 21:47:00,74.7,59.4,29.78,SE,133,4.0,11.0,59,0.00,,,0.00,meteohub,2013-10-01 02:47:00,
2013-09-30 21:52:00,74.5,59.2,29.77,SE,138,5.0,11.0,59,0.00,,,0.00,meteohub,2013-10-01 02:52:00,
2013-09-30 21:57:00,74.3,59.0,29.78,South,169,0.0,9.0,59,0.00,,,0.00,meteohub,2013-10-01 02:57:00,
2013-09-30 22:02:00,74.1,59.4,29.78,SE,130,1.0,9.0,60,0.00,,,0.00,meteohub,2013-10-01 03:02:00,
2013-09-30 22:07:00,73.9,59.2,29.78,SE,135,2.0,9.0,60,0.00,,,0.00,meteohub,2013-10-01 03:07:00,
2013-09-30 22:12:00,73.9,59.2,29.78,SE,132,5.0,9.0,60,0.00,,,0.00,meteohub,2013-10-01 03:12:00,
2013-09-30 22:17:00,73.9,59.2,29.78,SE,133,2.0,9.0,60,0.00,,,0.00,meteohub,2013-10-01 03:17:00,
2013-09-30 22:22:00,73.8,58.5,29.78,ESE,102,9.0,11.0,59,0.00,,,0.00,meteohub,2013-10-01 03:22:00,
2013-09-30 22:27:00,73.8,58.5,29.78,SSE,147,6.0,11.0,59,0.00,,,0.00,meteohub,2013-10-01 03:27:00,
2013-09-30 22:32:00,73.8,58.5,29.78,SE,124,6.0,13.0,59,0.00,,,0.00,meteohub,2013-10-01 03:32:00,
2013-09-30 22:37:00,73.6,58.3,29.78,ESE,123,5.0,14.0,59,0.00,,,0.00,meteohub,2013-10-01 03:37:00,
2013-09-30 22:42:00,73.4,58.3,29.78,SSE,155,5.0,14.0,59,0.00,,,0.00,meteohub,2013-10-01 03:42:00,
2013-09-30 22:47:00,73.2,58.1,29.78,SE,128,4.0,14.0,59,0.00,,,0.00,meteohub,2013-10-01 03:47:00,
2013-09-30 22:52:00,73.2,58.1,29.78,SSE,149,10.0,13.0,59,0.00,,,0.00,meteohub,2013-10-01 03:52:00,
2013-09-30 22:57:00,73.0,58.3,29.78,ESE,123,0.0,13.0,60,0.00,,,0.00,meteohub,2013-10-01 03:57:00,
2013-09-30 23:01:00,72.9,58.1,29.78,SE,132,0.0,13.0,60,0.00,,,0.00,meteohub,2013-10-01 04:01:00,
2013-09-30 23:02:00,72.9,58.1,29.78,SE,134,0.0,11.0,60,0.00,,,0.00,meteohub,2013-10-01 04:02:00,
2013-09-30 23:07:00,72.7,58.5,29.78,SE,140,5.0,11.0,61,0.00,,,0.00,meteohub,2013-10-01 04:07:00,
2013-09-30 23:12:00,72.3,58.1,29.78,SE,146,4.0,9.0,61,0.00,,,0.00,meteohub,2013-10-01 04:12:00,
2013-09-30 23:17:00,72.1,57.9,29.78,SE,142,2.0,9.0,61,0.00,,,0.00,meteohub,2013-10-01 04:17:00,
2013-09-30 23:22:00,72.0,58.3,29.78,SE,139,0.0,8.0,62,0.00,,,0.00,meteohub,2013-10-01 04:22:00,
2013-09-30 23:27:00,71.8,58.1,29.78,SSE,148,0.0,8.0,62,0.00,,,0.00,meteohub,2013-10-01 04:27:00,
2013-09-30 23:32:00,71.4,58.1,29.78,SE,142,4.0,11.0,63,0.00,,,0.00,meteohub,2013-10-01 04:32:00,
2013-09-30 23:37:00,71.2,57.9,29.78,SSE,161,0.0,11.0,63,0.00,,,0.00,meteohub,2013-10-01 04:37:00,
2013-09-30 23:42:00,71.1,58.3,29.78,SE,132,0.0,8.0,64,0.00,,,0.00,meteohub,2013-10-01 04:42:00,
2013-09-30 23:47:00,70.9,58.1,29.78,SSE,161,0.0,8.0,64,0.00,,,0.00,meteohub,2013-10-01 04:47:00,
2013-09-30 23:52:00,70.9,58.1,29.78,SSE,149,0.0,7.0,64,0.00,,,0.00,meteohub,2013-10-01 04:52:00,
2013-09-30 23:57:00,70.7,57.9,29.79,SSE,148,0.0,7.0,64,0.00,,,0.00,meteohub,2013-10-01 04:57:00,